CAPE
0 1 39 86 82 67 47 43 21 29 15 0 0 0 0 0 0 0 0 0 0 0 1 2 2 2 2 4 2 2 1 1 3 1 0 0 0 0 0 0 0 1 0
0 0 0 0 4 65 91 64 61 51 44 14 0 0 0 0 0 0 0 0 0 1 1 1 1 1 1 3 1 2 1 1 1 2 0 0 0 0 0 0 1 0 0
0 0 0 0 0 0 12 63 106 91 64 23 3 1 0 0 0 0 0 0 0 0 0 1 0 1 1 0 1 1 1 0 1 1 0 0 2 2 3 3 1 0 0
0 0 0 0 0 0 0 0 41 116 101 66 37 9 0 0 0 0 1 1 1 0 0 0 0 0 5 1 1 1 0 1 1 1 0 0 0 3 2 0 1 0 0
0 0 0 0 0 0 0 0 0 16 76 81 56 40 24 4 3 1 1 1 1 1 0 0 0 0 0 4 1 1 1 1 0 0 0 0 0 0 0 0 0 0 0
0 0 0 0 0 0 0 0 0 0 2 41 50 34 33 13 12 1 0 1 1 1 1 1 0 0 0 0 0 0 0 1 0 0 1 0 0 0 2 0 0 0 0
0 0 0 0 0 0 0 0 0 0 0 0 1 13 15 8 1 0 0 0 1 1 1 1 1 0 0 0 0 0 0 0 0 0 1 0 0 0 0 0 0 0 0
0 0 0 0 0 0 0 0 0 0 0 0 0 0 3 4 0 0 0 0 1 1 1 0 1 1 0 1 1 0 0 0 0 0 0 0 0 0 0 0 0 0 0
2 3 3 4 1 0 0 0 0 0 0 0 0 0 1 2 0 0 0 0 1 1 1 1 0 1 1 0 0 0 0 0 2 0 0 0 0 0 0 0 0 0 0
2 2 1 3 4 3 4 0 0 0 0 0 0 0 0 0 0 0 0 2 2 1 0 0 0 0 0 0 0 1 0 1 1 4 1 1 0 0 0 0 0 0 0
0 1 1 1 3 1 1 2 0 0 0 0 0 0 0 0 0 0 0 3 1 0 0 0 0 0 0 0 1 3 0 3 5 2 3 2 0 0 0 0 0 0 0
1 2 0 0 1 2 0 0 1 0 0 0 0 0 0 0 0 0 0 0 0 0 0 1 1 0 1 1 4 4 4 2 7 5 2 1 1 1 1 0 0 0 0
2 0 0 0 1 1 0 1 1 1 1 0 0 0 0 0 0 0 0 0 0 0 0 0 0 1 2 4 6 6 3 4 7 3 3 3 4 3 0 0 0 0 0
2 1 1 1 1 1 0 0 2 2 2 2 2 0 2 1 0 0 0 1 0 0 1 2 2 4 3 4 6 3 4 2 2 4 5 5 3 1 2 1 1 1 0
1 1 1 1 2 2 1 1 0 0 0 2 2 2 1 2 0 0 0 0 1 1 2 2 3 3 3 3 4 5 3 3 3 4 4 4 4 3 3 2 2 2 0
0 1 1 1 0 2 2 2 0 0 0 0 0 0 0 0 0 0 0 1 2 3 2 1 2 5 5 4 4 6 5 4 4 4 4 4 5 4 4 3 0 0 0
0 0 0 0 1 2 2 3 3 0 0 0 0 0 0 0 0 0 0 1 2 3 3 2 4 5 6 5 6 7 6 5 3 3 4 4 4 3 3 1 1 0 0
0 0 0 0 0 0 1 2 2 2 2 1 0 0 0 0 0 0 0 2 3 0 2 4 5 5 5 5 5 5 4 4 3 3 3 4 2 2 2 1 1 0 0
0 0 0 0 0 0 0 1 1 2 2 2 1 0 0 0 0 0 0 1 2 2 1 2 3 4 4 4 3 3 3 3 4 3 3 2 2 2 2 2 0 0 0
0 0 0 0 0 0 0 0 0 1 1 1 0 0 1 1 0 0 0 0 0 1 2 1 2 2 3 3 2 3 3 3 2 2 1 1 2 2 1 0 0 0 0
0 0 0 0 0 0 0 0 0 0 0 0 1 1 2 0 0 1 0 0 0 0 0 0 1 2 2 2 2 2 2 1 0 0 1 1 2 2 0 0 0 0 0
0 0 0 0 0 0 0 0 0 0 0 0 0 0 0 0 0 0 0 0 0 0 0 0 0 1 1 2 2 1 1 1 0 0 0 0 1 0 0 0 0 0 0
0 0 0 0 0 0 0 0 0 0 0 0 0 0 0 0 0 0 0 0 0 0 0 0 0 0 0 0 0 0 0 0 0 0 0 0 0 0 0 0 0 0 0
0 0 0 0 0 0 0 0 0 0 0 0 0 0 0 0 0 0 0 0 0 0 0 0 0 0 0 0 0 0 0 0 0 0 0 0 0 0 0 0 0 0 0
0 0 0 0 0 0 0 0 0 0 0 0 0 0 0 0 0 0 0 0 0 0 0 0 0 0 0 0 0 0 0 0 0 0 0 0 0 0 0 0 0 0 0
0 0 0 0 0 0 0 0 0 0 0 0 0 0 0 0 0 0 0 0 0 0 0 0 0 0 0 0 0 0 0 0 0 0 0 0 0 0 0 0 0 0 0
CIN
-0 -36 -268 -161 -122 -151 -154 -135 -156 -204 -231 -0 -0 -0 -0 -0 -0 -0 -0 -0 -0 -0 -0 -0 -0 -0 -0 -0 -0 -0 -0 -0 -0 -0 -0 -0 -0 -0 -0 -0 -0 -0 -0
-0 -0 -0 -0 -223 -114 -99 -123 -106 -141 -167 -233 -0 -0 -0 -0 -0 -0 -0 -0 -0 -0 -0 -0 -0 -0 -0 -0 -0 -0 -0 -0 -0 -0 -0 -0 -0 -0 -0 -0 -0 -0 -0
-0 -0 -0 -0 -0 -0 -202 -138 -130 -140 -134 -154 -133 -9 -0 -0 -0 -0 -0 -0 -0 -0 -0 -0 -0 -0 -0 -0 -0 -0 -0 -0 -0 -0 -0 -0 -0 -0 -0 -0 -0 -0 -0
-0 -0 -0 -0 -0 -0 -0 -0 -204 -112 -115 -114 -139 -187 -6 -7 -0 -0 -0 -0 -0 -0 -0 -0 -0 -0 -193 -0 -50 -0 -0 -0 -0 -0 -0 -0 -0 -0 -0 -0 -0 -0 -0
-0 -0 -0 -0 -0 -0 -0 -0 -0 -150 -140 -98 -97 -172 -190 -7 -9 -0 -0 -0 -0 -0 -0 -0 -0 -0 -0 -174 -0 -0 -0 -0 -0 -0 -0 -0 -0 -0 -0 -0 -0 -0 -0
-0 -0 -0 -0 -0 -0 -0 -0 -0 -0 -287 -202 -167 -171 -194 -226 -304 -35 -0 -0 -0 -0 -0 -0 -0 -0 -0 -0 -0 -0 -0 -0 -0 -0 -0 -0 -0 -0 -0 -0 -0 -0 -0
-0 -0 -0 -0 -0 -0 -0 -0 -0 -0 -0 -0 -298 -278 -274 -264 -315 -20 -1 -0 -0 -0 -0 -0 -0 -0 -0 -0 -0 -0 -0 -0 -0 -0 -0 -0 -0 -0 -0 -0 -0 -0 -0
-0 -0 -0 -0 -0 -0 -0 -0 -0 -0 -0 -0 -0 -0 -0 -1 -4 -0 -0 -15 -0 -0 -0 -0 -0 -0 -0 -0 -0 -0 -0 -0 -0 -0 -0 -0 -0 -0 -0 -0 -0 -0 -0
-0 -0 -0 -0 -0 -0 -0 -0 -0 -0 -0 -0 -0 -0 -0 -0 -6 -0 -0 -0 -3 -0 -0 -0 -0 -0 -0 -0 -0 -0 -0 -0 -0 -0 -0 -0 -0 -0 -0 -0 -0 -0 -0
-0 -0 -0 -0 -0 -0 -0 -0 -0 -0 -0 -0 -0 -0 -0 -0 -2 -0 -0 -25 -37 -0 -0 -0 -0 -0 -0 -0 -0 -0 -0 -0 -0 -0 -0 -0 -0 -0 -0 -0 -0 -0 -0
-0 -0 -0 -0 -0 -0 -0 -0 -0 -0 -0 -0 -0 -0 -0 -0 -0 -0 -0 -23 -0 -0 -0 -0 -0 -0 -0 -0 -0 -0 -0 -0 -0 -0 -0 -0 -0 -0 -0 -0 -0 -0 -0
-0 -0 -0 -0 -0 -0 -0 -0 -0 -0 -0 -0 -0 -0 -0 -0 -0 -0 -0 -1 -0 -0 -0 -0 -0 -0 -0 -0 -0 -0 -0 -0 -0 -0 -0 -0 -0 -0 -0 -0 -0 -0 -0
-0 -0 -0 -0 -0 -0 -0 -0 -0 -0 -0 -0 -0 -0 -0 -0 -0 -0 -0 -0 -0 -0 -0 -0 -0 -0 -0 -0 -0 -0 -0 -0 -0 -0 -0 -0 -0 -0 -0 -0 -0 -0 -0
-0 -0 -0 -0 -0 -0 -0 -0 -0 -0 -0 -0 -0 -0 -0 -0 -0 -0 -0 -0 -0 -0 -0 -0 -0 -0 -0 -0 -0 -0 -0 -0 -0 -0 -0 -0 -0 -0 -0 -0 -0 -0 -0
-0 -0 -0 -0 -0 -0 -0 -0 -0 -0 -0 -0 -0 -0 -0 -0 -0 -0 -0 -0 -0 -0 -0 -0 -0 -0 -0 -0 -0 -0 -0 -0 -0 -0 -0 -0 -0 -0 -0 -0 -0 -0 -0
-0 -0 -0 -0 -0 -0 -0 -0 -0 -0 -0 -0 -0 -0 -0 -0 -0 -0 -0 -0 -0 -0 -0 -0 -0 -0 -0 -0 -0 -0 -0 -0 -0 -0 -0 -0 -0 -0 -0 -0 -0 -0 -0
-0 -0 -0 -0 -0 -0 -0 -0 -0 -0 -0 -0 -0 -0 -0 -0 -0 -0 -0 -0 -0 -0 -0 -0 -0 -0 -0 -0 -0 -0 -0 -0 -0 -0 -0 -0 -0 -0 -0 -0 -0 -0 -0
-0 -0 -0 -0 -0 -0 -0 -0 -0 -0 -0 -0 -0 -0 -0 -0 -0 -0 -0 -0 -0 -0 -0 -0 -0 -0 -0 -0 -0 -0 -0 -0 -0 -0 -0 -0 -0 -0 -0 -0 -0 -0 -0
-0 -0 -0 -0 -0 -0 -0 -0 -0 -0 -0 -0 -0 -0 -0 -0 -0 -0 -0 -0 -0 -0 -0 -0 -0 -0 -0 -0 -0 -0 -0 -0 -0 -0 -0 -0 -0 -0 -0 -0 -0 -0 -0
-0 -0 -0 -0 -0 -0 -0 -0 -0 -0 -0 -0 -0 -0 -0 -0 -0 -0 -0 -0 -0 -0 -0 -0 -0 -0 -0 -0 -0 -0 -0 -0 -0 -0 -0 -0 -0 -0 -0 -0 -0 -0 -0
-0 -0 -0 -0 -0 -0 -0 -0 -0 -0 -0 -0 -0 -0 -0 -0 -0 -0 -0 -0 -0 -0 -0 -0 -0 -0 -0 -0 -0 -0 -0 -0 -0 -0 -0 -0 -0 -0 -0 -0 -0 -0 -0
-0 -0 -0 -0 -0 -0 -0 -0 -0 -0 -0 -0 -0 -0 -0 -0 -0 -0 -0 -0 -0 -0 -0 -0 -0 -0 -0 -0 -0 -0 -0 -0 -0 -0 -0 -0 -0 -0 -0 -0 -0 -0 -0
-0 -0 -0 -0 -0 -0 -0 -0 -0 -0 -0 -0 -0 -0 -0 -0 -0 -0 -0 -0 -0 -0 -0 -0 -0 -0 -0 -0 -0 -0 -0 -0 -0 -0 -0 -0 -0 -0 -0 -0 -0 -0 -0
-0 -0 -0 -0 -0 -0 -0 -0 -0 -0 -0 -0 -0 -0 -0 -0 -0 -0 -0 -0 -0 -0 -0 -0 -0 -0 -0 -0 -0 -0 -0 -0 -0 -0 -0 -0 -0 -0 -0 -0 -0 -0 -0
-0 -0 -0 -0 -0 -0 -0 -0 -0 -0 -0 -0 -0 -0 -0 -0 -0 -0 -0 -0 -0 -0 -0 -0 -0 -0 -0 -0 -0 -0 -0 -0 -0 -0 -0 -0 -0 -0 -0 -0 -0 -0 -0
-0 -0 -0 -0 -0 -0 -0 -0 -0 -0 -0 -0 -0 -0 -0 -0 -0 -0 -0 -0 -0 -0 -0 -0 -0 -0 -0 -0 -0 -0 -0 -0 -0 -0 -0 -0 -0 -0 -0 -0 -0 -0 -0
Wind_Speed
30 33 33 35 36 36 39 33 36 34 34 36 36 34 36 35 34 34 34 33 33 32 30 30 31 29 29 27 26 30 28 27 29 29 24 21 19 17 17 15 14 14 15
38 36 35 35 35 38 38 37 35 32 32 28 28 32 37 35 34 34 34 34 35 34 32 32 32 32 32 29 28 28 27 26 26 27 25 21 20 19 18 18 15 16 17
41 41 42 41 40 41 43 39 37 33 33 33 30 28 34 37 37 37 38 39 36 34 32 31 31 31 34 32 30 29 27 27 26 27 27 23 23 20 19 19 18 19 20
43 44 44 44 45 44 43 42 41 38 36 33 31 30 31 31 33 36 36 33 32 32 32 31 31 30 30 28 26 26 28 28 27 26 25 24 24 23 18 18 20 21 22
46 46 47 47 47 46 46 45 43 41 38 36 36 36 34 32 31 34 31 32 34 34 32 31 30 31 31 28 29 31 28 27 26 26 27 27 24 21 19 21 21 21 23
49 49 49 49 49 49 49 48 44 44 42 41 39 39 37 36 34 33 33 34 35 35 34 33 31 31 31 31 30 29 27 27 28 26 26 25 23 22 21 20 19 21 24
50 51 50 50 51 51 50 50 49 47 45 44 43 41 40 37 35 36 36 36 36 36 35 34 33 32 31 32 31 29 29 27 26 26 26 25 24 22 19 19 20 21 21
52 51 51 52 53 53 54 52 51 50 50 49 46 43 44 43 40 37 35 36 38 39 37 35 34 32 31 30 30 31 30 28 27 26 26 25 22 19 19 19 18 18 17
52 53 54 53 55 55 56 55 53 52 52 50 48 47 44 44 41 39 37 37 37 37 36 36 34 33 31 30 31 31 30 29 26 25 23 20 20 18 16 15 15 15 19
54 57 55 55 55 56 55 55 56 55 55 53 52 49 48 47 42 38 35 36 39 40 38 35 33 32 31 30 30 30 30 28 24 22 20 19 19 16 14 15 14 16 18
58 58 57 56 57 56 56 54 54 56 56 55 55 51 48 46 44 40 36 36 38 38 37 36 34 32 32 30 29 29 29 24 22 21 21 21 18 17 16 15 14 14 15
58 58 58 57 56 56 56 55 53 52 54 54 54 55 51 47 44 40 36 34 36 36 36 35 34 31 31 30 29 28 25 22 22 23 22 20 20 19 17 15 13 13 15
59 59 59 57 56 54 55 56 55 52 51 53 52 54 53 47 45 42 39 36 35 36 37 34 32 30 29 28 27 25 23 24 24 24 24 23 21 18 15 14 13 13 14
60 59 57 57 57 54 53 53 53 53 53 52 52 53 52 50 46 41 40 39 38 37 35 33 31 29 28 28 26 25 26 26 26 26 25 22 19 18 17 16 15 14 16
58 57 56 54 55 55 53 52 52 50 50 53 51 50 50 51 46 42 41 39 38 36 33 32 31 30 29 28 28 27 27 26 26 25 23 23 21 19 19 16 16 15 19
55 55 54 54 53 53 53 54 49 50 50 50 50 50 49 49 48 44 41 39 35 32 34 35 34 32 31 30 30 30 29 28 27 25 24 24 23 22 21 18 18 19 18
52 52 51 51 52 52 52 52 55 50 47 47 47 48 49 50 48 44 41 37 32 30 35 34 34 32 33 33 33 32 31 29 26 26 26 24 23 22 22 21 20 20 18
48 48 47 48 48 48 49 49 49 50 51 48 43 45 45 45 45 42 40 34 34 33 34 34 34 34 34 33 32 32 30 28 28 27 26 25 25 23 23 23 23 22 20
45 44 45 44 44 44 44 44 44 45 45 46 46 43 42 44 43 40 36 33 35 34 35 34 34 33 33 33 32 31 31 30 30 29 27 27 26 25 24 23 22 21 20
42 43 42 41 41 41 41 41 41 41 41 41 40 41 43 43 41 39 37 35 36 35 34 35 34 35 32 31 32 33 33 32 31 30 30 27 26 24 23 23 22 21 20
41 41 41 39 39 39 39 38 38 38 39 39 39 39 40 37 38 38 38 38 38 37 36 36 35 35 34 32 34 34 33 33 34 33 30 27 26 25 23 22 20 21 21
41 40 40 39 39 39 38 37 36 36 36 37 38 37 37 35 35 36 36 37 38 37 35 33 33 33 34 34 33 34 32 32 32 30 27 25 24 23 23 22 20 21 22
40 40 39 39 39 39 38 37 37 36 36 36 36 36 35 35 35 35 35 35 36 35 34 33 32 30 30 31 32 32 33 33 32 28 27 26 24 23 22 22 23 23 23
40 40 39 39 39 39 38 38 37 37 37 37 36 36 35 35 35 35 34 33 33 33 32 31 30 29 30 27 26 27 26 23 22 22 23 23 23 22 23 24 24 23 23
39 40 39 39 39 39 39 39 38 38 38 37 37 37 36 36 35 35 34 34 33 32 31 29 27 26 25 24 22 21 19 19 20 20 21 21 23 23 23 24 23 23 22
39 40 40 40 40 40 40 40 40 39 39 39 38 37 37 36 36 35 35 34 33 33 32 30 29 27 25 24 22 21 20 20 19 20 22 23 24 24 23 23 22 23 22
Wind_Direction
308 295 288 284 280 278 276 273 274 275 273 270 269 268 265 262 260 259 260 262 262 264 263 263 263 264 268 269 272 277 277 279 283 293 293 296 300 300 305 309 309 309 313
304 304 299 292 289 285 282 279 276 273 271 261 262 266 267 263 261 260 259 260 262 263 262 264 264 268 267 268 271 272 274 278 280 285 291 291 291 294 296 302 302 309 312
306 304 298 294 291 289 286 285 280 276 272 271 265 256 265 266 266 265 264 265 263 261 261 260 262 265 267 268 270 270 273 277 278 283 289 293 294 294 295 303 302 304 310
303 301 300 296 292 291 290 288 285 281 276 271 267 264 262 263 264 265 265 262 260 261 258 258 260 258 257 257 262 262 273 277 277 280 285 288 291 294 290 293 297 303 307
302 299 298 297 295 293 290 289 288 285 280 276 274 272 270 265 260 264 260 260 263 263 261 259 257 255 256 254 266 269 271 272 276 277 282 286 286 288 282 294 298 303 307
303 301 301 300 297 294 291 290 290 286 284 281 277 275 272 270 267 261 262 266 266 264 262 263 259 258 254 252 258 263 263 268 272 273 277 277 275 281 289 288 294 300 304
304 303 305 304 300 296 295 290 287 287 286 284 281 278 276 272 266 265 261 265 267 266 263 264 265 264 258 262 259 257 259 260 265 271 273 273 278 278 278 286 289 295 302
303 303 305 304 301 297 293 292 289 286 285 285 285 282 279 276 274 269 264 265 267 268 265 263 264 265 263 261 264 265 266 265 266 270 272 275 276 277 274 281 284 295 307
303 303 303 304 301 299 295 290 290 289 285 285 286 284 282 280 278 273 270 269 268 266 266 264 262 264 264 261 265 265 266 268 274 275 277 277 279 278 274 282 281 282 297
303 300 300 301 300 296 297 294 289 287 285 285 285 285 283 281 281 277 270 270 270 270 270 266 260 261 261 260 261 263 262 261 264 268 271 279 279 274 267 269 269 275 295
302 300 299 299 298 296 295 296 294 288 286 285 283 283 283 282 281 279 272 270 271 270 267 266 264 262 260 260 257 257 257 254 256 259 269 274 271 270 268 272 271 271 286
302 300 299 298 297 296 294 294 295 293 288 285 284 282 282 282 281 279 275 268 271 268 267 268 266 260 260 258 256 259 255 252 254 261 267 264 264 265 266 267 271 280 294
302 300 298 299 297 296 295 293 292 294 292 288 286 283 282 283 282 280 278 273 269 269 271 269 266 262 259 256 252 250 249 252 256 261 263 263 264 264 262 263 274 282 294
301 301 300 297 297 297 295 294 292 291 291 290 287 285 284 284 282 281 280 277 272 270 271 269 266 263 259 257 253 252 254 254 256 260 261 263 262 257 258 262 267 275 285
302 301 300 299 298 296 294 294 293 292 291 289 289 289 287 284 284 282 279 276 272 268 267 267 264 260 258 256 256 257 258 258 259 260 257 256 255 251 255 253 263 269 280
304 302 301 300 298 297 295 293 294 292 291 290 290 288 287 285 285 281 279 275 270 262 265 261 258 256 253 252 254 257 258 258 257 255 254 251 248 249 251 252 263 267 270
307 305 303 302 300 299 297 294 292 292 294 291 290 290 287 284 282 280 278 274 267 260 262 256 255 251 254 255 256 256 256 256 254 253 252 248 247 251 252 255 260 263 265
312 309 308 305 304 302 300 296 294 292 290 292 294 293 291 287 282 280 277 274 270 262 265 259 256 256 256 256 255 255 254 252 250 250 247 245 249 249 251 253 257 258 261
320 316 313 311 310 308 306 302 299 297 295 293 292 294 294 290 286 282 279 273 272 269 269 266 263 261 261 260 257 254 252 250 248 246 245 247 252 250 251 252 252 253 256
326 322 320 317 316 316 314 310 306 303 300 299 299 299 299 294 288 285 282 277 277 275 271 268 266 263 261 259 258 257 255 252 247 245 249 252 250 244 247 249 249 249 253
324 325 324 323 322 320 320 318 314 309 306 304 304 306 307 302 296 294 288 284 281 280 277 273 269 265 262 260 260 258 255 253 253 251 252 249 247 247 249 252 250 255 262
325 325 327 325 325 325 323 323 322 318 315 312 310 310 312 308 305 301 298 295 292 290 285 278 274 270 265 261 258 255 255 252 252 250 250 246 245 246 251 251 254 260 262
328 325 325 327 327 327 326 326 325 323 321 319 317 315 315 313 310 307 306 304 301 298 295 290 282 276 271 265 261 256 254 254 251 248 244 242 242 244 249 254 260 261 257
327 326 323 325 325 325 325 322 322 325 324 321 321 319 319 317 317 314 313 311 309 307 304 299 293 288 279 276 270 263 258 251 244 242 240 240 241 247 255 260 260 257 255
329 327 325 324 324 324 323 322 320 320 321 321 320 320 320 319 318 319 319 317 312 310 309 307 302 296 289 283 278 271 263 255 251 248 246 245 250 253 255 258 256 255 255
330 329 328 326 325 324 324 324 321 319 318 318 319 319 318 319 320 319 319 320 316 312 309 307 305 301 295 290 284 278 273 268 261 256 256 257 257 257 258 256 251 253 253